Location: Ganntown
(37.3634°N, 88.7842°W)
Time: 05:04:42
(UTC+00:00)

Daily predictions for brighter satellites

Satellite Brightness Start Highest point End
(mag) Time Altitude Azimuth Time Altitude Azimuth Time Altitude Azimuth
Okean O Rocket 3.5 00:01:50 10° SSW 00:05:48 34° W 00:09:47 10° NNW
SeaSat 1 3.9 00:11:24 17° ENE 00:11:48 17° NE 00:14:54 10° NNE
Cosmos 2219 3.6 00:07:19 10° N 00:12:43 40° ENE 00:17:55 11° SE
YAOGAN 1 3.0 00:10:53 10° SE 00:14:53 39° ENE 00:18:56 10° N
Aureole 3 2.7 00:11:48 10° S 00:15:16 87° W 00:18:20 10° N
S3M 4.1 00:14:20 10° SSE 00:20:05 46° E 00:25:54 10° NNE
CZ-2C R/B 3.4 00:18:40 10° SSE 00:24:19 54° ENE 00:29:52 10° N
Cosmos 1892 3.1 00:20:55 10° N 00:24:36 40° E 00:26:13 26° SE
Cosmos 1315 Rocket 3.5 00:21:29 10° SSE 00:24:26 31° ESE 00:24:26 31° ESE
Cosmos 968 Rocket 4.0 00:22:02 10° N 00:26:48 35° ENE 00:28:17 29° E
CZ-2D R/B 3.2 00:23:53 10° SSE 00:27:42 86° WSW 00:31:32 10° NNW
Delta 2 Rocket 4.2 00:23:12 10° W 00:28:29 66° S 00:31:32 27° ESE
Cosmos 1302 Rocket 4.5 00:24:09 10° SSW 00:29:20 64° WNW 00:34:36 10° NNE
Cosmos 1346 Rocket 4.1 00:26:15 10° NNE 00:28:23 24° NE 00:28:23 24° NE
Cosmos 2369 4.1 00:24:36 10° S 00:29:51 39° ESE 00:32:24 25° ENE
Timation 2 Rocket 4.1 00:23:21 10° NNW 00:30:02 84° ENE 00:36:53 10° SSE
Atlas Centaur 2 3.7 00:22:59 10° SW 00:30:51 43° SSE 00:35:20 24° ESE
Cosmos 1417 Rocket 4.4 00:25:39 10° S 00:31:50 75° E 00:38:07 10° N
Meteor 2-10 Rocket 3.5 00:27:53 10° S 00:33:13 61° E 00:38:22 10° NNE
CRYOSAT 2 4.5 00:29:02 10° NNE 00:33:44 48° E 00:38:24 10° SSE
Okean-O 2.6 00:31:38 10° SSE 00:36:03 89° W 00:40:30 10° NNW
ARGOS 3.7 00:36:35 34° E 00:37:14 35° ENE 00:42:08 10° N
NOSS 3-3 (A) 3.8 00:32:26 10° SSW 00:37:59 62° ESE 00:41:50 23° NE
NOSS 3-3 (C) 3.8 00:32:30 10° SSW 00:38:06 62° ESE 00:41:57 23° NE
Cosmos 1486 Rocket 4.2 00:34:04 10° N 00:39:14 48° ENE 00:41:03 35° ESE
Meteor 2-1 Rocket 4.1 00:36:00 10° S 00:41:26 63° E 00:46:53 10° NNE
Cosmos 1656 4.0 00:40:16 10° SSW 00:45:45 66° WNW 00:51:21 10° NNE
SJ-11-01 4.2 00:46:20 38° SE 00:47:54 60° ENE 00:52:29 10° N
MOS 1 Rocket 3.2 00:44:09 10° NNE 00:48:51 81° E 00:53:52 10° S
Cosmos 2227 Rocket 2.1 00:43:35 10° NNW 00:49:11 61° ENE 00:51:13 38° SE
Cosmos 1553 Rocket 4.3 00:44:14 10° SSW 00:50:35 69° W 00:56:53 10° N
CSL-04 Rocket 3.6 00:46:42 10° SSE 00:52:12 67° ENE 00:57:42 10° N
DMSP B5D1-3 4.5 00:47:23 10° NNE 00:52:33 86° WNW 00:57:42 10° SSW
ATLAS 2AS CENTAUR R/B 4.4 00:49:25 10° N 00:53:48 16° NNE 00:54:13 16° NE
SL-08 ROCKET BODY 4.3 00:48:55 10° N 00:55:04 87° E 01:01:15 10° S
GEOS 3 Rocket 3.7 00:57:17 53° E 00:57:56 57° NE 01:03:12 10° NNW
OAO 3 Rocket 3.8 00:55:53 10° W 01:00:25 44° SSW 01:01:04 41° S
Cosmos 1697 Rocket 2.6 00:57:20 10° SSW 01:02:56 90° ESE 01:05:59 29° NNE
Cosmos 1340 4.1 01:00:51 10° NNW 01:04:21 36° W 01:07:49 10° SSW
OAO 1 Rocket 4.4 01:02:28 10° WSW 01:07:45 64° S 01:07:59 64° SSE
H-2A R/B 2.1 01:03:04 13° SSE 01:07:51 88° WSW 01:13:20 10° NNW
Cosmos 1992 Rocket 4.2 01:05:23 10° SSW 01:10:33 68° WNW 01:13:54 22° N
ASTRO E2 4.5 01:09:12 10° SW 01:11:22 24° SSW 01:11:22 24° SSW
Cosmos 1455 4.0 01:17:48 10° SSW 01:19:52 27° SW 01:19:52 27° SW
Cosmos 1745 Rocket 4.3 01:15:08 10° NNW 01:21:23 67° W 01:27:38 10° S
Cosmos 1980 Rocket 3.2 01:19:12 10° SSW 01:22:19 34° S 01:22:19 34° S
CZ-4 R/B 3.7 01:21:51 10° SSW 01:24:57 22° W 01:28:02 10° NW
Cosmos 2058 4.5 01:24:23 10° NNW 01:26:52 31° NW 01:26:52 31° NW
Cosmos 2297 Rocket 3.0 01:23:50 10° NNW 01:29:16 48° WSW 01:32:04 27° SSW
Milstar 3 3.4 01:28:13 10° WSW 01:34:24 41° S 01:34:44 41° S
Cosmos 2360 4.5 01:29:19 10° SSW 01:35:00 65° WNW 01:35:33 61° NW
SeaSat 1 4.0 01:51:12 30° NW 01:51:12 30° NW 01:53:43 10° NNW
Cosmos 1709 Rocket 4.3 01:45:05 10° NNW 01:50:36 62° NW 01:50:36 62° NW
Atlas Centaur 2 3.8 02:12:03 10° WSW 02:17:56 42° SW 02:17:56 42° SW
CENTAUR R/B 3.9 08:57:17 32° NE 08:57:17 32° NE 09:00:56 10° NE
Cosmos 2344 3.9 09:27:00 51° N 09:27:00 51° N 09:33:07 10° NNE
USA 238 DEB 4.5 09:29:27 39° N 09:29:27 39° N 09:33:50 10° NNE
USA 238 4.5 09:29:32 39° N 09:29:32 39° N 09:33:56 10° NNE
ATLAS 3B R/B 3.8 09:36:11 15° S 09:40:57 37° ESE 09:46:54 10° NE
COSMOS 2406 3.4 09:48:10 64° SE 09:48:41 68° ESE 09:54:19 10° NNE
Cosmos 2279 Rocket 4.0 09:45:13 10° N 09:51:26 79° E 09:57:36 10° S
Cosmos 292 Rocket 4.0 09:57:37 67° ESE 09:57:37 67° ESE 10:02:04 10° SSE
Cosmos 1697 Rocket 4.5 09:53:27 10° N 09:58:22 30° ENE 10:03:16 10° ESE
ADEOS Rocket 2.8 09:53:27 10° SSE 09:58:57 76° ENE 10:04:28 10° N
BREEZE-M DEB (TANK) 4.2 10:04:38 21° ENE 10:04:38 21° ENE 10:05:33 10° E
ERS-2 3.8 10:00:33 10° SE 10:03:48 32° ENE 10:05:48 19° NNE
NOSS 3-3 (A) 4.5 10:00:01 33° NW 10:04:07 82° WSW 10:12:39 10° SSE
NOSS 3-3 (C) 4.5 10:00:14 34° NW 10:04:11 82° WSW 10:12:38 10° SSE
Cosmos 44 Rocket 4.2 10:04:23 27° N 10:06:55 50° NE 10:11:57 10° SE
Cosmos 1908 3.9 10:08:35 55° ENE 10:08:40 55° E 10:12:30 10° SSE
Cosmos 1461 3.7 10:10:10 40° SSE 10:11:26 55° ESE 10:15:58 10° NE
CBERS 1 LM4 rocket 4.3 10:07:40 10° NNE 10:12:35 87° ESE 10:14:27 38° SSW
FENGYUN 3A 4.4 10:08:22 10° NNE 10:13:42 54° E 10:18:59 10° S
ISS -2.0 10:19:03 27° NNE 10:19:03 27° NNE 10:20:49 10° NE
Cosmos 1980 Rocket 4.3 10:15:45 10° N 10:20:11 24° ENE 10:24:37 10° ESE
USA 290 4.3 10:18:28 11° SSE 10:21:03 27° ESE 10:23:51 10° NE
DELTA 2 R/B (1) 3.5 10:24:50 52° W 10:26:10 72° SSW 10:31:45 10° ESE
CZ-2C R/B 3.4 10:30:29 11° S 10:30:29 11° S 10:30:49 10° SSE
Lacrosse 4 Rocket 3.1 10:33:27 19° NNW 10:33:27 19° NNW 10:34:58 10° N
NOSS 3-2 (C) 4.3 10:31:39 29° NW 10:31:48 29° NW 10:37:15 10° NNE
ALOS 2.2 10:29:58 10° NNE 10:34:39 84° ESE 10:39:19 10° SSW
Cosmos 1626 1.9 10:36:50 10° S 10:40:30 80° W 10:44:11 10° N
Cosmos 1484 Rocket 2.5 10:36:54 10° N 10:40:45 79° WNW 10:44:30 10° SSW
CZ-2C R/B 3.2 10:41:02 10° N 10:44:45 29° NW 10:44:45 29° NW
CENTAUR R/B 3.5 10:44:30 25° WNW 10:45:40 26° NW 10:51:22 10° NNE
Cosmos 2228 3.2 10:45:27 10° N 10:49:49 76° E 10:54:12 10° S
CZ-4B R/B 3.9 10:46:45 10° NNE 10:50:43 51° E 10:54:52 10° S
Cosmos 1092 Rocket 4.0 10:46:18 10° S 10:52:27 87° E 10:58:41 10° N
Cosmos 1606 Rocket 3.7 10:48:28 10° N 10:52:58 78° E 10:57:25 10° S
ADEOS 3.5 10:48:33 10° N 10:53:41 59° WNW 10:58:48 10° SSW
Cosmos 1833 Rocket 3.0 10:50:45 20° SW 10:54:22 44° WNW 10:59:45 10° N
COSMO-SKYMED 1 3.5 10:51:44 10° SSE 10:55:56 51° ENE 11:00:09 10° N
Elektron 1 4.1 10:56:36 30° WSW 10:57:59 50° NW 11:00:46 10° NNE
Nadezhda 4 Rocket 4.1 10:52:45 10° SSW 10:58:37 49° W 11:04:33 10° N
Lacrosse 5 rocket 2.2 10:58:35 25° NW 10:58:49 25° NW 11:01:58 10° NNE
Cosmos 1302 Rocket 4.3 10:54:10 10° NNW 10:59:10 45° WSW 11:04:09 10° S
Geosat 4.0 10:55:15 10° SSE 11:00:11 60° WSW 11:05:09 10° NNW
H-2A R/B 4.0 10:56:50 10° SW 10:57:55 15° SW 10:57:55 15° SW
deb Kosmos-1763 4.4 10:59:06 27° WSW 11:00:33 41° WNW 11:03:59 10° N
Meteor 1-24 Rocket 3.6 10:55:46 10° SSW 11:01:18 79° W 11:07:05 10° N
CZ-3 R/B 3.4 10:42:22 17° WSW 11:01:27 55° S 11:08:22 10° ESE
ATLAS CENTAUR R/B 4.5 11:00:30 10° SSE 11:02:48 15° ESE 11:05:04 10° ENE
Meteor 1-31 Rocket 2.8 11:01:00 10° N 11:04:50 54° WNW 11:08:40 10° SSW
Meteor 2-13 Rocket 4.4 10:59:45 10° SSW 11:05:51 63° W 11:11:56 10° N
Meteor PRIRODA 3.9 11:03:53 10° NNE 11:07:31 70° E 11:11:10 10° S
Cosmos 2369 3.6 11:04:52 10° NNW 11:10:33 82° WSW 11:16:11 10° SSE
CZ-4B R/B 1.9 11:07:34 10° SSW 11:10:48 37° W 11:14:03 10° NNW
Cosmos 2082 Rocket 2.3 11:07:59 10° SW 11:13:28 54° WNW 11:18:59 10° NNE
Okean 1-7 Rocket 3.7 11:10:02 10° S 11:14:35 82° E 11:19:08 10° N
Cosmos 1627 Rocket 4.5 11:09:17 10° S 11:15:40 77° W 11:22:05 10° N
METEOR-M 4.3 11:10:39 10° N 11:15:48 49° WNW 11:20:54 10° SW
CZ-4B R/B 4.4 11:14:57 10° N 11:18:49 37° WNW 11:22:30 10° SW
ASTRO F (AKARI) 4.3 11:16:51 10° NNE 11:20:21 84° WNW 11:23:40 10° SSW
Cosmos 220 Rocket 4.0 11:16:56 10° NNW 11:21:20 63° WSW 11:25:40 10° S
deb Chang Zheng 4 4.3 11:18:30 10° N 11:22:13 30° WNW 11:25:56 10° SW
Intercosmos 24 4.3 11:19:55 10° NNW 11:23:16 33° W 11:26:32 10° SSW
Cosmos 2058 Rocket 3.2 11:18:58 10° N 11:23:30 81° E 11:27:56 10° S
SL-16 R/B 4.4 11:21:22 10° N 11:25:53 24° ENE 11:30:23 10° ESE
Meteor 2-5 Rocket 4.3 11:20:48 10° SW 11:25:58 36° WNW 11:31:15 10° N
Cosmos 1892 Rocket 3.8 11:26:14 10° SSW 11:30:20 43° W 11:34:31 10° N
ATLAS 3B R/B 3.1 11:25:26 10° WSW 11:31:31 39° NW 11:37:42 10° NNE
Cosmos 2084 3.6 11:28:08 10° SW 11:32:20 52° NW 11:36:37 10° NNE
Cosmos 1400 Rocket 2.8 11:29:20 10° NNW 11:33:11 56° W 11:36:59 10° S
YAOGAN 6 4.3 11:33:24 10° NNE 11:36:53 40° E 11:40:19 10° S
ERS-2 3.9 11:35:36 10° SW 11:37:25 13° W 11:39:15 10° WNW
Cosmos 1992 Rocket 4.2 11:34:46 10° NNW 11:39:46 49° WSW 11:44:46 10° S
H-2A R/B 3.1 11:35:27 10° NNE 11:39:48 66° ESE 11:43:58 10° S
Cosmos 1697 Rocket 3.3 11:37:13 10° NW 11:42:19 36° WSW 11:47:25 10° SSW
SKYMED 2 4.0 11:39:53 10° S 11:44:00 42° W 11:48:08 10° NNW
ADEOS Rocket 4.5 11:43:45 10° WSW 11:45:07 11° W 11:46:29 10° WNW
Meteor 2-8 Rocket 4.5 11:39:26 10° N 11:45:36 75° W 11:51:43 10° S
Cosmos 2292 Rocket 3.7 11:43:07 10° S 11:45:59 52° E 11:49:15 10° NNE
Abrixas rocket 3.8 11:43:44 10° NNW 11:46:04 22° NNE 11:48:24 10° E
Cosmos 1689 Rocket 3.1 11:45:51 10° SSW 11:48:20 25° W 11:50:50 10° NW
Cosmos 1553 Rocket 4.0 11:42:33 10° N 11:48:42 89° E 11:54:46 10° S
